Погода в Тернополе

Погода в Тернополе : погода сейчас, прогноз погоды и архив. Всё, что Вы хотите узнать о погоде в Тернополе!

Хотите узнать прогноз погоды в Тернополе? Тогда Вам сюда: Погода в Тернополе

Поиск расширенной информации на нашем сайте:

Другие новости

Новости СМИ2

Главная страница сайта

Новости сайта

03.07.2017

Напоминаем, что на нашем специализированном сайте Метеоцентр.Азия вы можете получить высокодетализированные автоматические прогнозы погоды по пунктам России, СНГ и мира в авиационном формате (включающие направление и скорость ветра, видимость, явления погоды, количество и форму облачности, нижнюю и верхнюю границу облачности).


Погода в Тернополе - сегодня

Время (UTC), дата Ветер
(°,м/с) 
Видим.   Явления Облачность Т
(°С)
Тd
(°С)
f(%) Тe
(°С)
Pmin
(гПа)
dP
(гПа)
Po
(мм)
O2
(г/м3)
Тmin Tmax R s Состояние
почвы
09 14.12.17 140 (ЮВ) 0200 м  переохл. туман  ?/?  
-0.1 -0.1 100 -4  1006.5  -1.4  725  292           
12 14.12.17 160 (Ю) 4000 м  дымка{туман}  9/8 600 м средняя 
[Sc|Ac trans]
+1.7 +1.2 96 -2  1004.3  -1.9  723  289           
15 14.12.17 160 (Ю) 4000 м  дымка  10/10 180 м 
[St]
+1.3 +1 98 -1  1004.1  -0.2  723  290           
18 14.12.17 150 (ЮВ) 4000 м  дымка  8/4 700 м средняя 
[Sc|Ac trans]
+0.7 +0.2 96 -2  1005  0.7  724  291    +1.8       
21 14.12.17 120 (ЮВ) 4000 м  дымка  8/3 1000 м средняя 
[Sc|Ac trans]
+0.4 -0.1 96 1005.8  0.8  724  291           
00 15.12.17 170 (Ю) 10 км    8/3 1000 м средняя 
[Sc|Ac trans]
+0.4 -1 90 1006.1  0.2  724  292           
03 15.12.17 140 (ЮВ) 10 км    8/3 1000 м средняя 
[Sc|Ac trans]
+0.3 -1.1 90 -2  1005.7  -0.4  724  292           
06 15.12.17 130 (ЮВ) 10 км    9/3 1000 м средняя 
[Sc|Ac trans]
+0.1 -1.3 90 -2  1005.1  -0.6  724  292  -0.3         
09 15.12.17 130 (ЮВ) 10 км    9/5 1080 м средняя 
[Sc|Ac und]
+1.4 -0.8 85 -1  1004.1  -0.7  723  290           
12 15.12.17 160 (Ю) 10 км    9/6 1000 м средняя 
[Sc|Ac und]
+2.4 -0.3 82 1003.3  -0.7  723  289           
15 15.12.17 160 (Ю) 10 км    9/4 1000 м средняя 
[Sc|Ac und]
+2 +0.1 87 1002.8  -0.5  722  289           
18 15.12.17 140 (ЮВ) 10 км  слаб. ливневой дождь  10/6 600 м кучево-дожд., средняя 
[Cb cap|Ac und]
+3.7 +2.5 92 +2  1003  0.5  723  287    +3.8  0.8     
21 15.12.17 130 (ЮВ) 10 км  {ливн. осадки}  6/0 средняя 
[Ac trans]
+3.3 +2.3 93 +3  1002.5  -0.6  722  287           
00 16.12.17 010 (С) 10 км  {ливн. осадки}  9/4 930 м средняя 
[Sc|Ac und]
+3 +2.3 95 +4  1001.3  -1.2  721  287           
03 16.12.17 070 (В) 10 км    10/6 600 м средняя 
[Sc|Ac und]
+3.2 +2.2 93 +3  999.3  -1.9  720  286           
06 16.12.17 090 (В) 4000 м  слаб. ливневой дождь  10/8 300 м кучево-дожд., средняя 
[Cb cap|Ac und]
+2.7 +2 95 +3  997.3  -2  718  286  +2.6       
09 16.12.17 290 (З) 2000 м  дымка{ливн. осадки}  10/10 180 м 
[St]
+3.1 +2.4 95 +4  997.4  0.2  719  286           
12 16.12.17 290 (З) 10 км  {ливн. осадки}  10/10 210 м 
[Sc]
+1.6 +0.3 91 -1  999.4  1.7  720  288           
15 16.12.17 270 (З) 4000 м  слаб. дождь со снегом  10/9 150 м средняя 
[Frnb|As op]
+0.9 -0.2 92 -2  1003  3.3  722  290           
18 16.12.17 270 (З) 4000 м  слаб. ливневой снег  10/8 200 м кучево-дожд., средняя 
[Cb cap|Ac und]
+0.6 -0.5 92 -3  1007.3  4.1  725  292    +3.2     
21 16.12.17 270 (З) 10 км  {ливн. осадки}  10/10 300 м 
[Sc]
+0.8 -0.6 90 -3  1010.6  3.2  728  292           
00 17.12.17 280 (З) 10 км  {ливн. осадки}  10/10 420 м 
[Sc]
+0.4 -1 90 -2  1013.7  2.9  730  294           
03 17.12.17 290 (З) 10 км    10/8 500 м средняя 
[Sc|Ac und]
+0.2 -1.2 90 -2  1015.4  1.6  731  294           
06 17.12.17 260 (З) 4000 м  дымка  10/10 600 м 
[Sc]
-0.2 -1.3 92 -2  1016.8  1.3  732  295  -0.4    0.0     
09 17.12.17 300 (СЗ) 10 км    9/9 1050 м 
[Sc]
+0.4 -2.2 83 1018.4  1.6  733  295           
Время (UTC), дата Ветер
(°,м/с) 
Видим.   Явления Облачность Т
(°С)
Тd
(°С)
f(%) Тe
(°С)
Pmin
(гПа)
dP
(гПа)
Po
(мм)
O2
(г/м3)
Тmin Tmax R s Состояние
почвы

Для получения пояснительной информации подведите курсор к названию столбца.

ПОГОДА в Тернополе - архив

Всё, что Вы хотите узнать о погоде в Тернополе - удобно и подробно!

Выберите нужную дату (начиная с 1 января 2015* года) и нажмите кнопку "Найти".
Будут отображены архивные сводки погоды по пункту Тернополь, начиная с указанной даты.


Отображать данные в формате CSV (для использования в таблицах Excel)


Внимание! Наш архив погоды предназначен исключительно для личного некоммерческого использования в познавательных целях. Если Вам необходимы официальные справки о состоянии погоды (для производственных, юридических, коммерческих и т.п. целей), обращайтесь в органы Росгидромета.

*Примечание: данная дата относится к архиву по метеостанциям СССР (Россия, СНГ, Балтия).
Архив по метеостанциям Зарубежной Европы и Азии (кроме Китая) хранится 10 дней, по другим регионам земного шара (Китай, Африка, Америка, Австралия, Океания) - 1 день.

Тернополь - район местоположения метеостанции


Название, широта, долгота, высота метеостанции:
Тернополь 49.5°ш. 25.7°д. 329 м над ур. моря [Украина]

Дополнительная информация

В oтличие oт бoльшинства пoгoдных сайтoв мы публикуем пoдрoбную метеoинфoрмацию в детальнoм прoфессиoнальнoм фoрмате.

Характеристики температуры и влажнoсти вoздуха измеряются на высoте 2 м в тени вдали oт зданий и деревьев.
Скoрoсть ветра измеряется на высoте 10 м (на урoвне рoста челoвека скoрoсть ветра ниже в 1.5-2 раза). Если метеoстанция нахoдится в гoрoде или в лесу, тo скoрoсть ветра занижена на 2-4 м/с пo сравнению с oткрытым местoм. Скoрoсть ветра над акватoриями крупных рек и oзёр, а также на вершинах хoлмoв на 2-5 м/с выше, чем в oбычных услoвиях.
Атмoсфернoе давление в разных тoчках местнoсти мoжет значительнo oтличаться oт давления на метеoстанции, в зависимoсти oт услoвий рельефа (при пoдъёме на 10 м давление пoнижается примернo на 1 мм рт.ст.).